Regional Weather Roundup
Issued by NWS Kansas City/Pleasant Hill, MO

Home | Current Version | Previous Version | Graphics & Text | Print | Product List | Glossary Off
Versions: 1 2 3 4 5 6 7 8 9 10 11 12 13 14 15 16 17 18 19 20 21 22 23 24 25 26 27 28 29 30 31 32 33 34 35 36 37 38 39 40 41 42 43 44 45 46 47 48 49 50

495
ASUS43 KEAX 201210
RWREAX

WEATHER ROUNDUP FOR EASTERN KANSAS AND NORTHWEST MISSOURI
NATIONAL WEATHER SERVICE KANSAS CITY/PLEASANT HILL MO
700 AM CDT WED SEP 20 2017

KSZ040-057-103>105-MOZ028-029-037-043-201300-
...KANSAS CITY METROPOLITAN AREA...

CITY           SKY/WX    TMP DP  RH WIND       PRES   REMARKS
K.C. INTL      PTCLDY    72  70  93 S12       29.76R
6HR MIN TEMP:  72; 6HR MAX TEMP:  78;

K.C. DOWNTOWN  CLEAR     76  71  85 SW7       29.76R
6HR MIN TEMP:  76; 6HR MAX TEMP:  80;

LEES SUMMIT    CLEAR     73  71  93 S14       29.78R
6HR MIN TEMP:  73; 6HR MAX TEMP:  77;

OLATHE - IXD   CLEAR     73  70  90 S12       29.78R
6HR MIN TEMP:  73; 6HR MAX TEMP:  76;

OLATHE - OJC   PTCLDY    73  71  93 S12       29.77R
6HR MIN TEMP:  72; 6HR MAX TEMP:  76;

LAWRENCE       PTCLDY    73  70  90 SE8       29.75R

$$

MOZ001>008-011>017-020>025-030>033-038>040-044>046-053-054-201300-
...NORTHERN AND CENTRAL MISSOURI...

CITY           SKY/WX    TMP DP  RH WIND       PRES   REMARKS
ST. JOSEPH     CLEAR     73  71  93 S7        29.74R
6HR MIN TEMP:  73; 6HR MAX TEMP:  79;

MOSBY          MOSUNNY   72  68  88 CALM      29.79R
WARRENSBURG    PTCLDY    72  68  88 S10       29.80R
WHITEMAN AFB   PTCLDY    73  68  83 S15       29.79R
6HR MIN TEMP:  72; 6HR MAX TEMP:  74;

CLINTON        CLEAR     73  70  88 S9        29.82R
SEDALIA        CLEAR     74  71  91 S10       29.83R
6HR MIN TEMP:  74; 6HR MAX TEMP:  76;

WARSAW         NOT AVBL
CHILLICOTHE      N/A     72  69  90 S6        29.79R
6HR MIN TEMP:  71; 6HR MAX TEMP:  76;

KIRKSVILLE     CLEAR     73  67  81 S12       29.82R
6HR MIN TEMP:  68; 6HR MAX TEMP:  74;


$$

MOZ041-047>049-056>058-063>065-088>090-097-201300-
...EASTERN AND SOUTHERN MISSOURI...

CITY           SKY/WX    TMP DP  RH WIND       PRES   REMARKS
ST. LOUIS INTL PTCLDY    73  69  87 SE5       29.90R
6HR MIN TEMP:  73; 6HR MAX TEMP:  78;

SPIRIT OF STL  PTCLDY    71  68  90 NE3       29.88R
COLUMBIA       CLEAR     71  69  93 SE8       29.86R
JEFFERSON CITY CLEAR     72  67  84 E8        29.85R
ROLLA          CLEAR     72  70  93 S13       29.90R
OSAGE BEACH    CLEAR     71  69  93 S8        29.88R
SPRINGFIELD    CLEAR     71  70  96 S13       29.88R
BRANSON        PTCLDY    68  68 100 CALM      29.92R FOG
JOPLIN         CLOUDY    75  73  93 S16G22    29.83R
WEST PLAINS    CLEAR     71  69  93 S3        29.94R

$$

IAZ060-094-KSZ022-034>040-054-083-096-NEZ052-066-093-201300-
...KANSAS...SOUTHEAST NEBRASKA AND IOWA...

CITY           SKY/WX    TMP DP  RH WIND       PRES   REMARKS
TOPEKA         CLEAR     75  71  87 S10       29.74R
6HR MIN TEMP:  75; 6HR MAX TEMP:  79;

MANHATTAN      CLEAR     72  68  87 SW6       29.71R
EMPORIA        CLEAR     72  68  87 SW7       29.77R
CHANUTE        CLEAR     75  71  87 S13       29.78R
WICHITA        PTCLDY    69  64  84 S9        29.75R
OMAHA          CLOUDY    68  60  75 N9        29.70R
LINCOLN        CLEAR     64  51  62 N7        29.74R
FALLS CITY     CLEAR     74  69  85 S7        29.70R
LAMONI         CLEAR     70  68  93 S8        29.75R
DES MOINES     PTCLDY    73  68  84 S9        29.70S

$$





USA.gov is the U.S. government's official web portal to all federal, state and local government web resources and services.